Time,TemperatureF,DewpointF,PressureIn,WindDirection,WindDirectionDegrees,WindSpeedMPH,WindSpeedGustMPH,Humidity,HourlyPrecipIn,Conditions,Clouds,dailyrainin,SoftwareType,DateUTC
2013-04-12 00:01:00,61.9,60.0,29.75,South,170,3.0,14.0,94,0.20,,,0.73,weatherlink.com 1.10,2013-04-12 04:01:00,
2013-04-12 00:16:00,62.0,60.0,29.74,South,173,3.0,16.0,94,0.20,,,0.73,weatherlink.com 1.10,2013-04-12 04:16:00,
2013-04-12 00:46:00,60.6,58.0,29.76,SSE,158,10.0,20.0,90,0.46,,,0.28,weatherlink.com 1.10,2013-04-12 04:46:00,
2013-04-12 01:01:00,58.2,56.0,29.74,South,172,5.0,15.0,93,1.01,,,0.84,weatherlink.com 1.10,2013-04-12 05:01:00,
2013-04-12 01:16:00,57.8,56.0,29.73,South,170,2.0,10.0,94,1.07,,,0.90,weatherlink.com 1.10,2013-04-12 05:16:00,
2013-04-12 01:31:00,57.6,56.0,29.73,SSE,165,5.0,9.0,94,1.05,,,1.03,weatherlink.com 1.10,2013-04-12 05:31:00,
2013-04-12 01:47:00,57.4,56.0,29.73,SSE,162,9.0,12.0,94,0.77,,,1.11,weatherlink.com 1.10,2013-04-12 05:47:00,
2013-04-12 02:01:00,57.2,55.0,29.73,SSE,167,1.0,16.0,93,0.34,,,1.18,weatherlink.com 1.10,2013-04-12 06:01:00,
2013-04-12 02:16:00,57.4,55.0,29.74,SSE,147,13.0,13.0,93,0.34,,,1.24,weatherlink.com 1.10,2013-04-12 06:16:00,
2013-04-12 02:31:00,57.3,55.0,29.73,South,170,6.0,23.0,91,0.31,,,1.34,weatherlink.com 1.10,2013-04-12 06:31:00,
2013-04-12 02:46:00,56.9,55.0,29.72,SSE,165,3.0,16.0,92,0.29,,,1.40,weatherlink.com 1.10,2013-04-12 06:46:00,
2013-04-12 03:01:00,56.9,54.0,29.72,SSE,167,2.0,13.0,91,0.24,,,1.42,weatherlink.com 1.10,2013-04-12 07:01:00,
2013-04-12 03:32:00,56.9,54.0,29.70,South,170,5.0,21.0,91,0.08,,,1.42,weatherlink.com 1.10,2013-04-12 07:32:00,
2013-04-12 03:47:00,57.1,55.0,29.71,SSE,167,9.0,14.0,91,0.02,,,1.42,weatherlink.com 1.10,2013-04-12 07:47:00,
2013-04-12 04:02:00,57.0,55.0,29.71,South,170,7.0,12.0,91,0.00,,,1.42,weatherlink.com 1.10,2013-04-12 08:02:00,
2013-04-12 04:17:00,57.1,55.0,29.70,South,170,5.0,12.0,91,0.00,,,1.42,weatherlink.com 1.10,2013-04-12 08:17:00,
2013-04-12 04:32:00,57.1,55.0,29.70,South,173,3.0,10.0,92,0.04,,,1.46,weatherlink.com 1.10,2013-04-12 08:32:00,
2013-04-12 04:47:00,56.5,55.0,29.70,South,170,0.0,7.0,94,0.09,,,1.51,weatherlink.com 1.10,2013-04-12 08:47:00,
2013-04-12 05:02:00,57.7,55.0,29.68,SSE,163,7.0,22.0,92,0.13,,,1.55,weatherlink.com 1.10,2013-04-12 09:02:00,
2013-04-12 05:17:00,58.0,56.0,29.68,South,169,4.0,21.0,92,0.13,,,1.55,weatherlink.com 1.10,2013-04-12 09:17:00,
2013-04-12 05:32:00,58.3,56.0,29.68,South,174,4.0,15.0,92,0.13,,,1.59,weatherlink.com 1.10,2013-04-12 09:32:00,
2013-04-12 05:47:00,58.7,56.0,29.67,South,173,5.0,25.0,91,0.07,,,1.59,weatherlink.com 1.10,2013-04-12 09:47:00,
2013-04-12 06:02:00,58.6,56.0,29.67,SSE,165,9.0,13.0,92,0.04,,,1.59,weatherlink.com 1.10,2013-04-12 10:02:00,
2013-04-12 06:17:00,58.3,56.0,29.68,SSE,167,4.0,13.0,93,0.08,,,1.63,weatherlink.com 1.10,2013-04-12 10:17:00,
2013-04-12 06:32:00,58.1,56.0,29.69,South,170,6.0,13.0,94,0.04,,,1.63,weatherlink.com 1.10,2013-04-12 10:32:00,
2013-04-12 06:47:00,58.0,56.0,29.69,South,170,2.0,16.0,94,0.04,,,1.63,weatherlink.com 1.10,2013-04-12 10:47:00,
2013-04-12 07:02:00,57.9,56.0,29.69,South,170,3.0,14.0,94,0.04,,,1.64,weatherlink.com 1.10,2013-04-12 11:02:00,
2013-04-12 07:17:00,57.8,56.0,29.69,SSE,163,9.0,15.0,94,0.01,,,1.64,weatherlink.com 1.10,2013-04-12 11:17:00,
2013-04-12 07:32:00,57.8,56.0,29.70,South,169,4.0,12.0,94,0.01,,,1.64,weatherlink.com 1.10,2013-04-12 11:32:00,
2013-04-12 07:47:00,57.7,56.0,29.71,South,169,5.0,12.0,94,0.01,,,1.64,weatherlink.com 1.10,2013-04-12 11:47:00,
2013-04-12 08:02:00,57.7,56.0,29.71,South,169,1.0,11.0,95,0.00,,,1.64,weatherlink.com 1.10,2013-04-12 12:02:00,
2013-04-12 08:17:00,57.9,56.0,29.72,SSE,166,2.0,9.0,94,0.00,,,1.64,weatherlink.com 1.10,2013-04-12 12:17:00,
2013-04-12 08:32:00,58.4,57.0,29.73,SSE,166,0.0,5.0,94,0.00,,,1.64,weatherlink.com 1.10,2013-04-12 12:32:00,
2013-04-12 08:47:00,57.8,56.0,29.73,SSE,167,1.0,10.0,92,0.00,,,1.64,weatherlink.com 1.10,2013-04-12 12:47:00,
2013-04-12 09:02:00,57.7,55.0,29.73,SSE,166,2.0,10.0,91,0.00,,,1.64,weatherlink.com 1.10,2013-04-12 13:02:00,
2013-04-12 09:17:00,58.8,55.0,29.73,South,169,2.0,13.0,86,0.00,,,1.64,weatherlink.com 1.10,2013-04-12 13:17:00,
2013-04-12 09:32:00,59.7,55.0,29.73,South,170,1.0,12.0,85,0.00,,,1.64,weatherlink.com 1.10,2013-04-12 13:32:00,
2013-04-12 09:47:00,59.8,54.0,29.74,South,169,1.0,13.0,82,0.00,,,1.64,weatherlink.com 1.10,2013-04-12 13:47:00,
2013-04-12 10:47:00,61.5,52.0,29.74,SSE,167,4.0,14.0,71,0.00,,,1.64,weatherlink.com 1.10,2013-04-12 14:47:00,
2013-04-12 11:02:00,61.8,52.0,29.75,SSE,160,12.0,18.0,70,0.00,,,1.64,weatherlink.com 1.10,2013-04-12 15:02:00,
2013-04-12 11:17:00,62.5,53.0,29.75,South,172,4.0,14.0,70,0.00,,,1.64,weatherlink.com 1.10,2013-04-12 15:17:00,
2013-04-12 11:32:00,64.4,54.0,29.75,SE,146,10.0,10.0,68,0.00,,,1.64,weatherlink.com 1.10,2013-04-12 15:32:00,
2013-04-12 11:47:00,64.1,52.0,29.75,SSE,166,2.0,12.0,64,0.00,,,1.64,weatherlink.com 1.10,2013-04-12 15:47:00,
2013-04-12 12:02:00,64.5,51.0,29.75,SSE,168,1.0,13.0,63,0.00,,,1.64,weatherlink.com 1.10,2013-04-12 16:02:00,
2013-04-12 12:17:00,64.8,51.0,29.75,SSE,167,6.0,11.0,61,0.00,,,1.64,weatherlink.com 1.10,2013-04-12 16:17:00,
2013-04-12 12:32:00,65.2,52.0,29.75,SSE,166,1.0,13.0,62,0.00,,,1.64,weatherlink.com 1.10,2013-04-12 16:32:00,
2013-04-12 12:47:00,66.1,51.0,29.75,South,173,2.0,12.0,58,0.00,,,1.64,weatherlink.com 1.10,2013-04-12 16:47:00,
2013-04-12 13:02:00,65.6,51.0,29.75,South,172,2.0,6.0,59,0.00,,,1.64,weatherlink.com 1.10,2013-04-12 17:02:00,
2013-04-12 13:18:00,65.6,50.0,29.75,SSE,166,2.0,12.0,58,0.00,,,1.64,weatherlink.com 1.10,2013-04-12 17:18:00,
2013-04-12 13:33:00,66.4,49.0,29.75,South,169,2.0,15.0,53,0.00,,,1.64,weatherlink.com 1.10,2013-04-12 17:33:00,
2013-04-12 13:48:00,66.6,49.0,29.75,South,173,1.0,15.0,54,0.00,,,1.64,weatherlink.com 1.10,2013-04-12 17:48:00,
2013-04-12 14:03:00,67.0,48.0,29.75,South,172,5.0,13.0,50,0.00,,,1.64,weatherlink.com 1.10,2013-04-12 18:03:00,
2013-04-12 15:33:00,66.6,43.0,29.74,South,170,0.0,10.0,43,0.00,,,1.64,weatherlink.com 1.10,2013-04-12 19:33:00,
2013-04-12 15:48:00,66.3,42.0,29.74,South,174,5.0,13.0,42,0.00,,,1.64,weatherlink.com 1.10,2013-04-12 19:48:00,
2013-04-12 16:03:00,65.4,42.0,29.75,South,169,6.0,17.0,42,0.00,,,1.64,weatherlink.com 1.10,2013-04-12 20:03:00,
2013-04-12 16:18:00,65.1,41.0,29.74,South,172,3.0,15.0,41,0.00,,,1.64,weatherlink.com 1.10,2013-04-12 20:18:00,
2013-04-12 16:33:00,65.2,41.0,29.74,SSE,163,5.0,17.0,42,0.00,,,1.64,weatherlink.com 1.10,2013-04-12 20:33:00,
2013-04-12 16:48:00,65.2,39.0,29.74,South,172,2.0,18.0,39,0.00,,,1.64,weatherlink.com 1.10,2013-04-12 20:48:00,
2013-04-12 17:03:00,65.5,40.0,29.75,South,170,3.0,10.0,40,0.00,,,1.64,weatherlink.com 1.10,2013-04-12 21:03:00,
2013-04-12 17:18:00,65.2,41.0,29.75,SSE,166,2.0,12.0,41,0.00,,,1.64,weatherlink.com 1.10,2013-04-12 21:18:00,
2013-04-12 17:34:00,64.1,41.0,29.76,South,172,3.0,11.0,43,0.00,,,1.64,weatherlink.com 1.10,2013-04-12 21:34:00,
2013-04-12 17:48:00,63.3,40.0,29.76,South,169,1.0,13.0,43,0.00,,,1.64,weatherlink.com 1.10,2013-04-12 21:48:00,
2013-04-12 18:03:00,62.9,40.0,29.75,South,173,1.0,8.0,44,0.00,,,1.64,weatherlink.com 1.10,2013-04-12 22:03:00,
2013-04-12 18:18:00,62.2,40.0,29.76,South,173,1.0,15.0,45,0.00,,,1.64,weatherlink.com 1.10,2013-04-12 22:18:00,
2013-04-12 18:33:00,61.5,40.0,29.76,South,173,2.0,9.0,45,0.00,,,1.64,weatherlink.com 1.10,2013-04-12 22:33:00,
2013-04-12 18:48:00,61.6,42.0,29.77,South,170,0.0,6.0,48,0.00,,,1.64,weatherlink.com 1.10,2013-04-12 22:48:00,
2013-04-12 19:03:00,61.1,41.0,29.77,South,170,0.0,5.0,48,0.00,,,1.64,weatherlink.com 1.10,2013-04-12 23:03:00,
2013-04-12 19:18:00,60.0,41.0,29.78,South,173,0.0,4.0,49,0.00,,,1.64,weatherlink.com 1.10,2013-04-12 23:18:00,
2013-04-12 19:33:00,57.4,40.0,29.78,South,169,1.0,8.0,52,0.00,,,1.64,weatherlink.com 1.10,2013-04-12 23:33:00,
2013-04-12 19:48:00,55.7,40.0,29.79,SSE,167,4.0,4.0,55,0.00,,,1.64,weatherlink.com 1.10,2013-04-12 23:48:00,
2013-04-12 20:03:00,54.8,39.0,29.79,South,172,0.0,6.0,56,0.00,,,1.64,weatherlink.com 1.10,2013-04-13 00:03:00,
2013-04-12 20:18:00,54.1,39.0,29.80,South,172,0.0,4.0,57,0.00,,,1.64,weatherlink.com 1.10,2013-04-13 00:18:00,
2013-04-12 20:33:00,53.3,38.0,29.81,South,170,2.0,5.0,57,0.00,,,1.64,weatherlink.com 1.10,2013-04-13 00:33:00,
2013-04-12 20:48:00,52.6,38.0,29.82,South,170,3.0,6.0,57,0.00,,,1.64,weatherlink.com 1.10,2013-04-13 00:48:00,
2013-04-12 21:03:00,52.0,37.0,29.83,SSE,167,0.0,11.0,58,0.00,,,1.64,weatherlink.com 1.10,2013-04-13 01:03:00,
2013-04-12 21:18:00,51.7,37.0,29.84,South,170,0.0,7.0,57,0.00,,,1.64,weatherlink.com 1.10,2013-04-13 01:18:00,
2013-04-12 21:33:00,51.0,36.0,29.84,South,169,0.0,7.0,57,0.00,,,1.64,weatherlink.com 1.10,2013-04-13 01:33:00,
2013-04-12 21:48:00,50.5,36.0,29.86,South,170,1.0,9.0,58,0.00,,,1.64,weatherlink.com 1.10,2013-04-13 01:48:00,
2013-04-12 22:03:00,49.9,36.0,29.85,South,172,3.0,8.0,59,0.00,,,1.64,weatherlink.com 1.10,2013-04-13 02:03:00,
2013-04-12 22:18:00,49.6,36.0,29.86,South,174,0.0,14.0,59,0.00,,,1.64,weatherlink.com 1.10,2013-04-13 02:18:00,
2013-04-12 22:34:00,49.1,36.0,29.85,South,170,3.0,16.0,60,0.00,,,1.64,weatherlink.com 1.10,2013-04-13 02:34:00,
2013-04-12 22:49:00,48.6,36.0,29.84,South,170,4.0,18.0,61,0.00,,,1.64,weatherlink.com 1.10,2013-04-13 02:49:00,
2013-04-12 23:04:00,48.5,35.0,29.84,SSE,153,8.0,8.0,60,0.00,,,1.64,weatherlink.com 1.10,2013-04-13 03:04:00,
2013-04-12 23:19:00,48.5,35.0,29.82,South,170,4.0,16.0,60,0.00,,,1.64,weatherlink.com 1.10,2013-04-13 03:19:00,
2013-04-12 23:34:00,48.5,35.0,29.83,SSE,167,6.0,12.0,61,0.00,,,1.64,weatherlink.com 1.10,2013-04-13 03:34:00,
2013-04-12 23:49:00,48.3,35.0,29.82,South,173,4.0,11.0,61,0.00,,,1.64,weatherlink.com 1.10,2013-04-13 03:49:00,